This is the latest recevied weather packets stored in our database for station/object OE5HCE. If no packets are shown the sender has not sent any weather packets the latest 10 day(s).
| Time | Temp. | Humidity | Pressure | Rain* | Wind** | Luminosity | Snow |
|---|---|---|---|---|---|---|---|
| 1787993165 | 21.11° C | 69% | 1018.5 hPa | 0 mm | - | 633 W/m² | - |
| 1787992248 | 20.56° C | 66% | 1018.6 hPa | 0 mm | - | 232 W/m² | - |
| 1787991353 | 20° C | 68% | 1018.6 hPa | 0 mm | - | 39 W/m² | - |
| 1787990441 | 19.44° C | 70% | 1018.7 hPa | 0 mm | - | 37 W/m² | - |
| 1787989539 | 18.89° C | 72% | 1018.6 hPa | 0 mm | - | 37 W/m² | - |
| 1787988639 | 18.33° C | 74% | 1018.5 hPa | 0 mm | - | 39 W/m² | - |
| 1787987741 | 17.78° C | 75% | 1018.4 hPa | 0 mm | - | 47 W/m² | - |
| 1787986836 | 17.22° C | 73% | 1018.5 hPa | 0 mm | - | 241 W/m² | - |
| 1787985934 | 16.67° C | 71% | 1018.4 hPa | 0 mm | - | 301 W/m² | - |
| 1787985032 | 16.11° C | 67% | 1018.3 hPa | 0 mm | - | 195 W/m² | - |
| 1787984130 | 15.56° C | 59% | 1018.2 hPa | 0 mm | - | 84 W/m² | - |
| 1787983232 | 15° C | 58% | 1017.9 hPa | 0 mm | - | 197 W/m² | - |
| 1787982322 | 15° C | 58% | 1017.8 hPa | 0 mm | - | 146 W/m² | - |
| 1787981419 | 15° C | 60% | 1017.7 hPa | 0 mm | - | 100 W/m² | - |
| 1787980517 | 14.44° C | 64% | 1017.6 hPa | 0 mm | - | 23 W/m² | - |
| 1787979617 | 14.44° C | 68% | 1017.5 hPa | 0 mm | - | 14 W/m² | - |
| 1787978714 | 14.44° C | 70% | 1017.5 hPa | 0 mm | - | 12 W/m² | - |
| 1787977812 | 15° C | 72% | 1017.5 hPa | 0 mm | - | 5 W/m² | - |
| 1787976911 | 15° C | 73% | 1017.5 hPa | 0 mm | - | 0 W/m² | - |
| 1787976008 | 15.56° C | 75% | 1017.5 hPa | 0 mm | - | 0 W/m² | - |
| 1787975110 | 15.56° C | 76% | 1017.3 hPa | 0 mm | - | 0 W/m² | - |
| 1787974206 | 15.56° C | 77% | 1017.4 hPa | 0 mm | - | 0 W/m² | - |
| 1787973305 | 15.56° C | 77% | 1017.5 hPa | 0 mm | - | 0 W/m² | - |
| 1787972404 | 15.56° C | 77% | 1017.7 hPa | 0 mm | - | 0 W/m² | - |
| 1787971508 | 15.56° C | 77% | 1017.7 hPa | 0 mm | - | 0 W/m² | - |
* Rain latest hour (hover to see other rain measurements)
** Current wind speed in m/s (hover to see current wind gust speed)